Showing default

GOES 18, 51850

Orbit data source: Space-Track

GOES 18, 51850 is a payload satellite owned by NOAA (US) in GEO that was launched on Tue, 01 Mar 2022 UTC via an ATLAS V 541 launch vehicle from the Air Force Eastern Test Range (AFETR). Payloads include a variety of satellites, spacecraft, and rockets equipped with specific instruments for various scientific and technological missions. These include communications satellites like Starlink; space stations such as the ISS; scientific satellites like the Hubble; Earth observation satellites from companies like Planet Labs, Umbra, and HawkEye 360; GPS; miniature CubeSats for education and research; and military/defense satellites.

Loading next visibility...
GOES 18 details
Identifier
51850, 2022-021A
Orbit
GEO
Last TLE update1 day ago
Origin
Flag of USNOAA (US)
ManufacturerLMCSS
MissionOperational Civil Weather
Bus & MotorA2100, LEROS-1C
Mass5,209 kg wet, 2,857 kg dry
Launch date (UTC)
2022-03-01 (3 years ago)
Launch vehicle
ATLAS V 541
Launch site
Air Force Eastern Test Range (AFETR)
Object type
Payload
Rocket body
Debris
Shape & HBRBox + 1 Pan + 1 Rod, 12 m
Radar Cross Section37.561 m², Large (>1 m²)

Expand to show TLE details & history

TLE from 1 day ago
0 GOES 18
1 51850U 22021A   24347.92426562  .00000111  00000-0  00000+0 0  9994
2 51850   0.0414 158.1805 0000690 136.8182 342.8385  1.00271884 10276
Epoch: 2024-12-12T22:10Z
Definitive object data (Epoch: 2024-12-12T22:10:56.549Z)
Latitude-0.01143°
Longitude-137.0109°
Altitude35,783.273 km
Speed3.075 km/s
True Right ascension18h 31m 17s
True Declination0° 00' 41"
Sunlit
Object was in daylight at TLE epoch
Visualization TLE readout
Latitude-0.01405°
Longitude-143.09661°
Altitude35,783.275 km
Speed3.075 km/s
Apparent Right ascension17h 51m 21s
Apparent Declination-6° 06' 56"
Sunlit
Object is in daylight
Visualization observer readout
Local Sidereal Time20:14:30
Azimuth224.133° SW
Elevation33.387°
Doppler factor1
Orbital elements
Apogee altitude35,790.547 km
Perigee altitude35,784.728 km
Semi-major axis42,165.775 km
Eccentricity0.000069
Inclination0.0414°
RAAN158.1805°
Arg. of periapsis136.8182°
True anomaly342.83617°
Mean anomaly342.8385°
Eccentric anomaly342.83733°
Mean motion0.25067 °/min
BSTARUnknown
Orbital period1436.15 mins
Loading historical data...
51850 neighbors
Authenticating...
Loading maneuver chart data...
Loading historical data...
Loading historical data...
Loading historical data...
Loading historical data...
Loading historical data...
Loading historical data...
Loading historical data...
Other satellites on launch #21 in the year 2022 (2022-03-01 UTC)

GOES 18 Visibility forecast

Observer location: undefined°, undefined

Span
Click to sort rows by Start time (UTC) header in descending order
Start Az.
Max El. time (UTC)
Max El. Az.
Max El.
End time (UTC)
End Az.
1440 mins2024-12-13 21:42:43.135Z224.12° SW2024-12-14 09:29:43.135Z224.13° SW28.838°2024-12-14 21:42:43.135Z224.112° SW
|